Location: Newark
(5.8900°S, 42.6378°W)
Time: 08:34:38
(UTC+00:00)

Altair - Visible Passes

Search period start: 17 October 2019 00:00
Search period end: 27 October 2019 00:00
Orbit: 1501 x 1683 km, 47.2° (Epoch: 16 October)

Date Brightness Start Highest point End Pass type
(mag) Time Alt. Az. Time Alt. Az. Time Alt. Az.
17 Oct 8.5 22:06:24 10° N 22:13:20 25° NE 22:13:20 25° NE visible
18 Oct 9.2 00:08:56 10° NW 00:11:27 20° NW 00:11:27 20° NW visible
18 Oct 8.5 21:41:41 10° N 21:49:05 23° NE 21:50:52 22° ENE visible
18 Oct 8.5 23:43:41 10° NW 23:49:00 37° NW 23:49:00 37° NW visible
19 Oct 8.7 21:17:04 10° N 21:23:51 20° NE 21:28:42 14° E visible
19 Oct 7.7 23:18:26 10° NW 23:26:52 67° NW 23:26:52 67° NW visible
20 Oct 9.9 08:01:07 10° SSE 08:04:50 13° SE 08:08:32 10° ESE visible
20 Oct 8.8 20:52:33 10° NNE 20:58:36 17° NE 21:04:34 10° E visible
20 Oct 7.4 22:53:13 10° NW 23:03:24 87° NE 23:05:09 67° SE visible
21 Oct 9.6 01:01:40 10° W 01:03:22 14° W 01:03:22 14° W visible
21 Oct 10.0 07:37:17 10° SSE 07:39:30 11° SE 07:41:43 10° SE visible
21 Oct 7.5 22:28:02 10° NW 22:38:13 79° NE 22:44:02 30° SE visible
22 Oct 9.2 00:35:48 10° W 00:42:20 23° SW 00:42:20 23° SW visible
22 Oct 7.5 22:02:54 10° NNW 22:13:02 72° NE 22:22:57 10° SE visible
23 Oct 9.1 00:10:02 10° W 00:17:58 26° SW 00:22:41 19° S visible
23 Oct 7.6 21:37:48 10° NNW 21:47:50 64° NE 21:57:42 10° SE visible
23 Oct 9.0 23:44:20 10° WNW 23:52:42 29° SW 00:00:57 10° S visible
24 Oct 7.7 21:12:43 10° NNW 21:22:38 58° NE 21:32:24 10° SE visible
24 Oct 8.9 23:18:42 10° WNW 23:27:27 33° SW 23:36:04 10° SSE visible
25 Oct 8.9 07:55:59 10° SSW 08:04:25 39° SE 08:12:46 10° ENE visible
25 Oct 7.8 20:47:41 10° NNW 20:57:26 52° NE 21:07:04 10° SE visible
25 Oct 8.8 22:53:08 10° WNW 23:02:12 37° SW 23:11:09 10° SSE visible
26 Oct 9.0 07:31:03 10° SSW 07:39:14 35° SE 07:47:19 10° ENE visible
26 Oct 8.7 22:27:37 10° WNW 22:36:57 41° SW 22:46:11 10° SSE visible
